User: anonymous   Login
Location: Unspecified
(0.0000°N, 0.0000°E)
Time: 09:30:14
(UTC+00:00)
Language:

ATHENOXAT 1 - Orbit

View from above orbital plane
View from above orbital plane
View from above satellite
View from above satellite

Ground track
Ground track

The orbit data is extracted from the following two-line orbital elements,

1 41168U 15077C   17327.53502737  .00002863  00000-0  12261-3 0  9996
2 41168  14.9835  84.8542 0011814  64.0981  21.4479 15.12215009107197
Epoch (UTC): 23 November 2017 12:50:26
Eccentricity: 0.0011814
inclination: 14.9835°
perigee height: 521 km
apogee height: 537 km
right ascension of ascending node: 84.8542°
argument of perigee: 64.0981°
revolutions per day: 15.12215009
mean anomaly at epoch: 21.4479°
orbit number at epoch: 10719

The dashed part of the orbit path shows where the satellite is in the earth's shadow,  

DLR